When you browse on this site, cookies collect data to enhance your experience and personalize the content and advertising you see.
Visit our Privacy Policy to learn more. By continuing to use the site, you agree to this use of cookies and data.
  • In Austria
  • List of Countries
  • For 7 days
  • Water Temperature
  • Satellite Maps
  • Weather Map
  • News
  • Weather Widgets
  • user-avatar
    Login

    Hourly Weather Statesboro

    Today, 21 May, Tuesday

    Time Temperature Precipitation Wind Pressure Humidity
    00:00 +25°C° 0 mm 2 mps 755 mmHg 72%
    01:00 +25°C° 0 mm 2 mps 755 mmHg 75%
    02:00 +24°C° 0 mm 2 mps 755 mmHg 77%
    03:00 +24°C° 0 mm 2 mps 755 mmHg 78%
    04:00 +23°C° 0 mm 2 mps 755 mmHg 80%
    05:00 +24°C° 0 mm 1 mps 755 mmHg 78%
    06:00 +25°C° 0 mm 1 mps 755 mmHg 76%
    07:00 +25°C° 0 mm 1 mps 755 mmHg 75%
    08:00 +27°C° 0 mm 1 mps 756 mmHg 67%
    09:00 +30°C° 0 mm 1 mps 756 mmHg 59%
    10:00 +32°C° 0 mm 2 mps 756 mmHg 52%
    11:00 +33°C° 0 mm 1 mps 756 mmHg 47%
    12:00 +34°C° 0 mm 1 mps 756 mmHg 42%
    13:00 +35°C° 0 mm 1 mps 756 mmHg 37%
    14:00 +35°C° 0 mm 1 mps 755 mmHg 38%
    15:00 +34°C° 0 mm 1 mps 755 mmHg 40%
    16:00 +34°C° 0 mm 1 mps 755 mmHg 41%
    17:00 +33°C° 0 mm 1 mps 755 mmHg 45%
    18:00 +31°C° 0 mm 1 mps 755 mmHg 48%
    19:00 +30°C° 0 mm 1 mps 755 mmHg 51%
    20:00 +29°C° 0 mm 1 mps 755 mmHg 54%
    21:00 +28°C° 0 mm 2 mps 756 mmHg 58%
    22:00 +27°C° 0 mm 2 mps 756 mmHg 61%
    23:00 +26°C° 0 mm 2 mps 756 mmHg 64%

    Tomorrow, 22 May, Wednesday

    Time Temperature Precipitation Wind Pressure Humidity
    00:00 +26°C° 0 mm 2 mps 756 mmHg 68%
    01:00 +25°C° 0 mm 2 mps 757 mmHg 71%
    02:00 +24°C° 0 mm 2 mps 757 mmHg 72%
    03:00 +24°C° 0 mm 2 mps 757 mmHg 73%
    04:00 +24°C° 0 mm 2 mps 757 mmHg 74%
    05:00 +24°C° 0 mm 1 mps 757 mmHg 73%
    06:00 +25°C° 0 mm 1 mps 758 mmHg 72%
    07:00 +25°C° 0 mm 1 mps 758 mmHg 71%
    08:00 +28°C° 0 mm 1 mps 759 mmHg 64%
    09:00 +30°C° 0 mm 1 mps 759 mmHg 58%
    10:00 +32°C° 0 mm 1 mps 759 mmHg 51%
    11:00 +32°C° 0 mm 1 mps 759 mmHg 50%
    12:00 +32°C° 0 mm 1 mps 759 mmHg 50%
    13:00 +33°C° 0 mm 1 mps 759 mmHg 49%
    14:00 +34°C° 0 mm 2 mps 759 mmHg 48%
    15:00 +34°C° 0 mm 2 mps 759 mmHg 48%
    16:00 +34°C° 0 mm 2 mps 759 mmHg 47%
    17:00 +33°C° 0 mm 3 mps 759 mmHg 51%
    18:00 +31°C° 0 mm 3 mps 759 mmHg 55%
    19:00 +30°C° 0 mm 4 mps 760 mmHg 59%
    20:00 +28°C° 0 mm 4 mps 760 mmHg 67%
    21:00 +27°C° 0 mm 4 mps 761 mmHg 74%
    22:00 +26°C° 0 mm 4 mps 761 mmHg 82%
    23:00 +25°C° 0 mm 3 mps 761 mmHg 84%

    Day after tomorrow, 23 May, Thursday

    Time Temperature Precipitation Wind Pressure Humidity
    00:00 +25°C° 0 mm 3 mps 761 mmHg 87%
    01:00 +24°C° 0 mm 3 mps 761 mmHg 90%
    02:00 +24°C° 0 mm 2 mps 761 mmHg 91%
    03:00 +24°C° 0 mm 2 mps 761 mmHg 93%
    04:00 +23°C° 0 mm 2 mps 761 mmHg 94%
    05:00 +24°C° 0 mm 1 mps 761 mmHg 90%
    06:00 +24°C° 0 mm 1 mps 762 mmHg 86%
    07:00 +25°C° 0 mm 1 mps 762 mmHg 81%
    08:00 +27°C° 0 mm 1 mps 762 mmHg 71%
    09:00 +29°C° 0 mm 1 mps 763 mmHg 60%
    10:00 +31°C° 0 mm 1 mps 763 mmHg 50%
    11:00 +32°C° 0 mm 1 mps 763 mmHg 45%
    12:00 +34°C° 0 mm 1 mps 762 mmHg 41%
    13:00 +35°C° 0 mm 1 mps 762 mmHg 36%
    14:00 +35°C° 0 mm 1 mps 761 mmHg 37%
    15:00 +36°C° 0 mm 2 mps 761 mmHg 37%
    16:00 +36°C° 0 mm 2 mps 760 mmHg 37%
    17:00 +34°C° 0 mm 2 mps 760 mmHg 43%
    18:00 +31°C° 0 mm 3 mps 760 mmHg 49%
    19:00 +30°C° 0 mm 3 mps 760 mmHg 55%
    20:00 +28°C° 0 mm 3 mps 761 mmHg 60%
    21:00 +27°C° 0 mm 3 mps 761 mmHg 66%
    22:00 +25°C° 0 mm 3 mps 761 mmHg 71%
    23:00 +25°C° 0 mm 3 mps 761 mmHg 76%

    24 May, Friday

    Time Temperature Precipitation Wind Pressure Humidity
    00:00 +24°C° 0 mm 2 mps 760 mmHg 82%
    01:00 +23°C° 0 mm 2 mps 760 mmHg 87%
    02:00 +23°C° 0 mm 2 mps 760 mmHg 89%
    03:00 +21°C° 0 mm 2 mps 760 mmHg 91%
    04:00 +21°C° 0 mm 2 mps 760 mmHg 93%
    05:00 +23°C° 0 mm 2 mps 760 mmHg 90%
    06:00 +24°C° 0 mm 2 mps 760 mmHg 86%
    07:00 +24°C° 0 mm 2 mps 760 mmHg 83%
    08:00 +27°C° 0 mm 2 mps 761 mmHg 72%
    09:00 +29°C° 0 mm 3 mps 761 mmHg 61%
    10:00 +31°C° 0 mm 3 mps 761 mmHg 49%
    11:00 +34°C° 0 mm 3 mps 760 mmHg 46%
    12:00 +35°C° 0 mm 3 mps 760 mmHg 42%
    13:00 +36°C° 0 mm 3 mps 759 mmHg 39%
    14:00 +37°C° 0 mm 3 mps 759 mmHg 38%
    15:00 +37°C° 0 mm 3 mps 758 mmHg 37%
    16:00 +37°C° 0 mm 3 mps 758 mmHg 36%
    17:00 +36°C° 0 mm 2 mps 758 mmHg 41%
    18:00 +34°C° 0 mm 2 mps 758 mmHg 46%
    19:00 +32°C° 0 mm 1 mps 758 mmHg 50%
    20:00 +31°C° 0 mm 1 mps 758 mmHg 51%
    21:00 +30°C° 0 mm 2 mps 758 mmHg 51%
    22:00 +29°C° 0 mm 2 mps 758 mmHg 52%
    23:00 +29°C° 0 mm 2 mps 758 mmHg 54%

    25 May, Saturday

    Time Temperature Precipitation Wind Pressure Humidity
    00:00 +28°C° 0 mm 2 mps 758 mmHg 56%
    01:00 +27°C° 0 mm 2 mps 758 mmHg 58%
    02:00 +27°C° 0 mm 2 mps 758 mmHg 60%
    03:00 +26°C° 0 mm 2 mps 758 mmHg 62%
    04:00 +26°C° 0 mm 2 mps 758 mmHg 64%
    05:00 +26°C° 0 mm 2 mps 758 mmHg 64%
    06:00 +27°C° 0 mm 2 mps 758 mmHg 64%
    07:00 +28°C° 0 mm 2 mps 759 mmHg 64%
    08:00 +30°C° 0 mm 2 mps 759 mmHg 58%
    09:00 +32°C° 0 mm 2 mps 759 mmHg 51%
    10:00 +36°C° 0 mm 3 mps 759 mmHg 45%
    11:00 +37°C° 0 mm 3 mps 758 mmHg 41%
    12:00 +38°C° 0 mm 3 mps 758 mmHg 37%
    13:00 +39°C° 0 mm 3 mps 758 mmHg 33%
    14:00 +39°C° 0 mm 3 mps 757 mmHg 32%
    15:00 +39°C° 0 mm 3 mps 757 mmHg 31%
    16:00 +39°C° 0 mm 3 mps 757 mmHg 31%
    17:00 +38°C° 0 mm 3 mps 757 mmHg 36%
    18:00 +36°C° 0 mm 2 mps 757 mmHg 41%
    19:00 +34°C° 0 mm 2 mps 757 mmHg 46%
    20:00 +32°C° 0 mm 2 mps 757 mmHg 49%
    21:00 +31°C° 0 mm 2 mps 757 mmHg 51%
    22:00 +29°C° 0 mm 2 mps 758 mmHg 54%
    23:00 +29°C° 0 mm 1 mps 757 mmHg 56%

    26 May, Sunday

    Time Temperature Precipitation Wind Pressure Humidity
    00:00 +28°C° 0 mm 1 mps 757 mmHg 59%
    01:00 +27°C° 0 mm 1 mps 757 mmHg 61%
    02:00 +27°C° 0 mm 1 mps 757 mmHg 62%
    03:00 +26°C° 0 mm 1 mps 757 mmHg 64%
    04:00 +26°C° 0 mm 1 mps 757 mmHg 65%
    05:00 +27°C° 0 mm 1 mps 757 mmHg 64%
    06:00 +28°C° 0 mm 1 mps 758 mmHg 63%
    07:00 +29°C° 0 mm 1 mps 758 mmHg 62%
    08:00 +31°C° 0 mm 2 mps 758 mmHg 55%
    09:00 +34°C° 0 mm 2 mps 758 mmHg 48%
    10:00 +36°C° 0 mm 3 mps 758 mmHg 41%
    11:00 +37°C° 0 mm 4 mps 758 mmHg 38%
    12:00 +38°C° 0 mm 4 mps 757 mmHg 35%
    13:00 +40°C° 0 mm 4 mps 757 mmHg 32%
    14:00 +40°C° 0 mm 4 mps 757 mmHg 31%
    15:00 +40°C° 0 mm 4 mps 756 mmHg 31%
    16:00 +39°C° 0 mm 3 mps 756 mmHg 30%
    17:00 +38°C° 0 mm 3 mps 756 mmHg 35%
    18:00 +36°C° 0 mm 2 mps 756 mmHg 39%
    19:00 +34°C° 0 mm 1 mps 756 mmHg 44%
    20:00 +33°C° 0 mm 1 mps 756 mmHg 45%
    21:00 +32°C° 0 mm 2 mps 756 mmHg 46%
    22:00 +30°C° 0 mm 2 mps 756 mmHg 47%
    23:00 +30°C° 0 mm 2 mps 756 mmHg 49%
    Show more